User: anonymous   Login
Location: Unspecified
(0.0000°N, 0.0000°E)
Time: 05:42:12
(UTC+00:00)
Language:

COSMOS 2468 - Orbit

View from above orbital plane
View from above orbital plane
View from above satellite
View from above satellite

Ground track
Ground track

The orbit data is extracted from the following two-line orbital elements,

1 37154U 10043C   16042.66693428  .00000028  00000-0  12970-3 0  9997
2 37154  82.4601 267.7677 0014129 272.1082  87.8378 12.43621182246254
Epoch (UTC): 11 February 2016 16:00:23
Eccentricity: 0.0014129
inclination: 82.4601°
perigee height: 1480 km
apogee height: 1502 km
right ascension of ascending node: 267.7677°
argument of perigee: 272.1082°
revolutions per day: 12.43621182
mean anomaly at epoch: 87.8378°
orbit number at epoch: 24625

The dashed part of the orbit path shows where the satellite is in the earth's shadow,  

DLR